This is the latest recevied weather packets stored in our database for station/object IW5EIJ-10. If no packets are shown the sender has not sent any weather packets the latest 1 day(s).
| Time | Temp. | Humidity | Pressure | Rain* | Wind** | Luminosity | Snow |
|---|---|---|---|---|---|---|---|
| 1788596015 | 23.89° C | 56% | 1023.4 hPa | - | - | - | - |
| 1788594796 | 24.44° C | 52% | 1023.4 hPa | - | - | - | - |
| 1788593587 | 24.44° C | 52% | 1023.1 hPa | - | - | - | - |
| 1788589987 | 25° C | 54% | 1022.7 hPa | - | - | - | - |
| 1788588787 | 24.44° C | 54% | 1022.7 hPa | - | - | - | - |
| 1788587587 | 24.44° C | 55% | 1022.7 hPa | - | - | - | - |
| 1788586386 | 23.89° C | 56% | 1022.8 hPa | - | - | - | - |
| 1788585191 | 23.89° C | 56% | 1022.6 hPa | - | - | - | - |
| 1788583986 | 23.89° C | 55% | 1022.5 hPa | - | - | - | - |
| 1788582786 | 23.33° C | 57% | 1022.4 hPa | - | - | - | - |
| 1788581589 | 25° C | 53% | 1022.4 hPa | - | - | - | - |
| 1788580389 | 25° C | 55% | 1022.5 hPa | - | - | - | - |
| 1788577988 | 25° C | 51% | 1022.4 hPa | - | - | - | - |
| 1788576788 | 25.56° C | 47% | 1022.5 hPa | - | - | - | - |
| 1788575585 | 25.56° C | 45% | 1022.5 hPa | - | - | - | - |
| 1788574386 | 25.56° C | 45% | 1022.6 hPa | - | - | - | - |
| 1788573187 | 25.56° C | 45% | 1022.4 hPa | - | - | - | - |
| 1788571985 | 25.56° C | 45% | 1022.5 hPa | - | - | - | - |
| 1788570786 | 25° C | 45% | 1022.5 hPa | - | - | - | - |
| 1788569586 | 25° C | 44% | 1022.5 hPa | - | - | - | - |
| 1788568384 | 26.11° C | 46% | 1022.6 hPa | - | - | - | - |
| 1788567184 | 26.11° C | 46% | 1022.8 hPa | - | - | - | - |
| 1788565984 | 26.67° C | 44% | 1022.9 hPa | - | - | - | - |
| 1788564784 | 26.67° C | 44% | 1023 hPa | - | - | - | - |
| 1788563584 | 26.67° C | 43% | 1023.1 hPa | - | - | - | - |
* Rain since midnight (hover to see other rain measurements)
** Current wind speed in m/s (hover to see current wind gust speed)